User: anonymous
Location: Vancouver
(49.2500°N, 123.1330°W)
Time: 23:33:17
(UTC-07:00)
Language:

YAOGAN 6 - Orbit

View from above orbital plane
View from above orbital plane
View from above satellite
View from above satellite

Ground track
Ground track

The orbit data is extracted from the following two-line orbital elements,

1 34839U 09021A   14213.85544527  .00002257  00000-0  10601-3 0  8828
2 34839 097.2823 288.0120 0034712 071.7120 063.6888 15.20093046292648
Epoch (UTC): 01 August 2014 20:31:50
Eccentricity: 0.0034712
inclination: 97.2823°
perigee height: 481 km
apogee height: 529 km
right ascension of ascending node: 288.0120°
argument of perigee: 71.7120°
revolutions per day: 15.20093046
mean anomaly at epoch: 63.6888°
orbit number at epoch: 29264

The dashed part of the orbit path shows where the satellite is in the earth's shadow,  

DLR